User: anonymous   Login
Location: Brno
(49.2000°N, 16.6330°E)
Time: 23:45:57
(UTC+01:00)
Language:

Cosmos 332 Rocket - Orbit

View from above orbital plane
View from above orbital plane
View from above satellite
View from above satellite

Ground track
Ground track

The orbit data is extracted from the following two-line orbital elements,

1 04370U 70028B   17055.82637624  .00000102  00000-0  27599-4 0  9996
2 04370  74.0401 303.5259 0016760 251.2247 108.7101 14.59833283995582
Epoch (UTC): 24 February 2017 19:49:58
Eccentricity: 0.0016760
inclination: 74.0401°
perigee height: 682 km
apogee height: 705 km
right ascension of ascending node: 303.5259°
argument of perigee: 251.2247°
revolutions per day: 14.59833283
mean anomaly at epoch: 108.7101°
orbit number at epoch: 99558

The dashed part of the orbit path shows where the satellite is in the earth's shadow,  

DLR